Вернуться в каталог

PALAPA 1

АктивенСвязьGEO
NORAD 9009·PAYLOAD·🇮🇩 Indonesia

Запущен Jul 8, 1976 с Cape Canaveral Space Force Station

Loading…

TLE

СвежийSource: Space-Track

Эпоха: Sep 14, 2026, 08:37 UTC

1 09009U 76066A   26257.35931174 -.00000130  00000-0  00000-0 0  9993
2 09009   7.7101 304.4577 0004997 242.2374 285.7694  1.00109331128830

Отслеживайте PALAPA 1 в реальном времени с AllMySat

Download on the App Store